Time,TemperatureF,DewpointF,PressureIn,WindDirection,WindDirectionDegrees,WindSpeedMPH,WindSpeedGustMPH,Humidity,HourlyPrecipIn,Conditions,Clouds,dailyrainin,SoftwareType,DateUTC
2013-01-04 00:00:00,16.0,8.9,30.00,SE,135,0.0,0.0,73,0.00,,,0.00,Weather View 32 v70,2013-01-04 05:00:00,
2013-01-04 00:04:00,16.0,11.5,30.00,ESE,112,0.0,0.0,82,0.00,,,0.00,Weather View 32 v70,2013-01-04 05:04:00,
2013-01-04 00:09:00,16.0,8.9,30.00,SSE,158,0.0,0.0,73,0.00,,,0.00,Weather View 32 v70,2013-01-04 05:09:00,
2013-01-04 00:15:00,16.0,10.9,29.99,SE,135,0.0,0.0,80,0.00,,,0.00,Weather View 32 v70,2013-01-04 05:15:00,
2013-01-04 00:20:00,16.0,11.5,29.99,SE,135,0.0,0.0,82,0.00,,,0.00,Weather View 32 v70,2013-01-04 05:20:00,
2013-01-04 00:25:00,15.0,10.0,29.99,SSW,202,0.0,0.0,80,0.00,,,0.00,Weather View 32 v70,2013-01-04 05:25:00,
2013-01-04 00:34:00,15.0,9.4,29.99,SSW,202,0.0,0.0,78,0.00,,,0.00,Weather View 32 v70,2013-01-04 05:34:00,
2013-01-04 00:39:00,15.0,9.1,29.99,SSE,158,0.0,0.0,77,0.00,,,0.00,Weather View 32 v70,2013-01-04 05:39:00,
2013-01-04 00:45:00,15.0,12.9,29.99,SE,135,0.0,0.0,91,0.00,,,0.00,Weather View 32 v70,2013-01-04 05:45:00,
2013-01-04 00:50:00,14.0,9.3,29.98,South,180,0.0,0.0,81,0.00,,,0.00,Weather View 32 v70,2013-01-04 05:50:00,
2013-01-04 00:59:00,14.0,7.8,29.98,South,180,0.0,0.0,76,0.00,,,0.00,Weather View 32 v70,2013-01-04 05:59:00,
2013-01-04 01:05:00,14.0,11.1,29.98,South,180,0.0,0.0,88,0.00,,,0.00,Weather View 32 v70,2013-01-04 06:05:00,
2013-01-04 01:10:00,14.0,7.8,29.98,South,180,0.0,0.0,76,0.00,,,0.00,Weather View 32 v70,2013-01-04 06:10:00,
2013-01-04 01:15:00,13.0,6.9,29.98,South,180,0.0,0.0,76,0.00,,,0.00,Weather View 32 v70,2013-01-04 06:15:00,
2013-01-04 01:24:00,13.0,7.2,29.98,ESE,112,0.0,0.0,77,0.00,,,0.00,Weather View 32 v70,2013-01-04 06:24:00,
2013-01-04 01:29:00,13.0,7.2,29.98,ESE,112,0.0,0.0,77,0.00,,,0.00,Weather View 32 v70,2013-01-04 06:29:00,
2013-01-04 01:35:00,13.0,7.2,29.98,ESE,112,0.0,0.0,77,0.00,,,0.00,Weather View 32 v70,2013-01-04 06:35:00,
2013-01-04 01:40:00,13.0,10.4,29.98,ESE,112,0.0,0.0,89,0.00,,,0.00,Weather View 32 v70,2013-01-04 06:40:00,
2013-01-04 01:49:00,12.0,9.9,29.98,ESE,112,0.0,0.0,91,0.00,,,0.00,Weather View 32 v70,2013-01-04 06:49:00,
2013-01-04 01:54:00,12.0,9.6,29.98,ENE,68,0.0,0.0,90,0.00,,,0.00,Weather View 32 v70,2013-01-04 06:54:00,
2013-01-04 02:00:00,12.0,9.4,29.98,ENE,68,0.0,0.0,89,0.00,,,0.00,Weather View 32 v70,2013-01-04 07:00:00,
2013-01-04 02:05:00,12.0,10.1,29.98,ESE,112,0.0,0.0,92,0.00,,,0.00,Weather View 32 v70,2013-01-04 07:05:00,
2013-01-04 02:10:00,12.0,6.5,29.98,ESE,112,0.0,0.0,78,0.00,,,0.00,Weather View 32 v70,2013-01-04 07:10:00,
2013-01-04 02:19:00,12.0,6.7,29.98,SSW,202,0.0,0.0,79,0.00,,,0.00,Weather View 32 v70,2013-01-04 07:19:00,
2013-01-04 02:25:00,12.0,8.9,29.98,SSW,202,0.0,0.0,87,0.00,,,0.00,Weather View 32 v70,2013-01-04 07:25:00,
2013-01-04 02:30:00,12.0,7.8,29.98,SE,135,0.0,0.0,83,0.00,,,0.00,Weather View 32 v70,2013-01-04 07:30:00,
2013-01-04 02:35:00,12.0,7.8,29.98,SE,135,0.0,0.0,83,0.00,,,0.00,Weather View 32 v70,2013-01-04 07:35:00,
2013-01-04 02:44:00,12.0,10.4,29.98,SSW,202,0.0,0.0,93,0.00,,,0.00,Weather View 32 v70,2013-01-04 07:44:00,
2013-01-04 02:50:00,12.0,9.9,29.98,SSW,202,0.0,0.0,91,0.00,,,0.00,Weather View 32 v70,2013-01-04 07:50:00,
2013-01-04 02:55:00,12.0,9.9,29.97,SSW,202,0.0,0.0,91,0.00,,,0.00,Weather View 32 v70,2013-01-04 07:55:00,
2013-01-04 03:00:00,12.0,10.1,29.97,SSW,202,0.0,0.0,92,0.00,,,0.00,Weather View 32 v70,2013-01-04 08:00:00,
2013-01-04 03:10:00,12.0,7.6,29.97,South,180,0.0,0.0,82,0.00,,,0.00,Weather View 32 v70,2013-01-04 08:10:00,
2013-01-04 03:15:00,12.0,7.6,29.97,SSW,202,0.0,0.0,82,0.00,,,0.00,Weather View 32 v70,2013-01-04 08:15:00,
2013-01-04 03:20:00,12.0,7.3,29.96,SSW,202,0.0,0.0,81,0.00,,,0.00,Weather View 32 v70,2013-01-04 08:20:00,
2013-01-04 03:25:00,12.0,7.3,29.96,SSE,158,0.0,0.0,81,0.00,,,0.00,Weather View 32 v70,2013-01-04 08:25:00,
2013-01-04 03:34:00,12.0,7.6,29.96,SSW,202,0.0,0.0,82,0.00,,,0.00,Weather View 32 v70,2013-01-04 08:34:00,
2013-01-04 03:39:00,12.0,7.6,29.96,SSW,202,0.0,0.0,82,0.00,,,0.00,Weather View 32 v70,2013-01-04 08:39:00,
2013-01-04 03:45:00,12.0,7.6,29.96,East,90,0.0,0.0,82,0.00,,,0.00,Weather View 32 v70,2013-01-04 08:45:00,
2013-01-04 03:55:00,12.0,7.6,29.96,ENE,68,0.0,0.0,82,0.00,,,0.00,Weather View 32 v70,2013-01-04 08:55:00,
2013-01-04 04:04:00,12.0,7.6,29.96,SE,135,0.0,0.0,82,0.00,,,0.00,Weather View 32 v70,2013-01-04 09:04:00,
2013-01-04 04:10:00,12.0,7.6,29.96,East,90,0.0,0.0,82,0.00,,,0.00,Weather View 32 v70,2013-01-04 09:10:00,
2013-01-04 04:15:00,12.0,7.6,29.96,ESE,112,0.0,0.0,82,0.00,,,0.00,Weather View 32 v70,2013-01-04 09:15:00,
2013-01-04 04:20:00,12.0,7.6,29.96,SSE,158,0.0,0.0,82,0.00,,,0.00,Weather View 32 v70,2013-01-04 09:20:00,
2013-01-04 04:29:00,12.0,7.8,29.96,South,180,0.0,0.0,83,0.00,,,0.00,Weather View 32 v70,2013-01-04 09:29:00,
2013-01-04 04:35:00,12.0,7.8,29.96,South,180,0.0,0.0,83,0.00,,,0.00,Weather View 32 v70,2013-01-04 09:35:00,
2013-01-04 04:40:00,12.0,7.8,29.96,South,180,0.0,0.0,83,0.00,,,0.00,Weather View 32 v70,2013-01-04 09:40:00,
2013-01-04 04:45:00,12.0,7.8,29.96,South,180,0.0,0.0,83,0.00,,,0.00,Weather View 32 v70,2013-01-04 09:45:00,
2013-01-04 04:54:00,12.0,7.8,29.96,South,180,0.0,0.0,83,0.00,,,0.00,Weather View 32 v70,2013-01-04 09:54:00,
2013-01-04 05:00:00,12.0,7.8,29.96,SSW,202,0.0,0.0,83,0.00,,,0.00,Weather View 32 v70,2013-01-04 10:00:00,
2013-01-04 05:05:00,12.0,7.8,29.96,SSE,158,0.0,0.0,83,0.00,,,0.00,Weather View 32 v70,2013-01-04 10:05:00,
2013-01-04 05:10:00,12.0,7.8,29.96,ESE,112,0.0,0.0,83,0.00,,,0.00,Weather View 32 v70,2013-01-04 10:10:00,
2013-01-04 05:19:00,12.0,7.8,29.96,South,180,0.0,0.0,83,0.00,,,0.00,Weather View 32 v70,2013-01-04 10:19:00,
2013-01-04 05:24:00,12.0,7.8,29.96,SSW,202,0.0,0.0,83,0.00,,,0.00,Weather View 32 v70,2013-01-04 10:24:00,
2013-01-04 05:30:00,12.0,7.8,29.96,SSW,202,0.0,0.0,83,0.00,,,0.00,Weather View 32 v70,2013-01-04 10:30:00,
2013-01-04 05:35:00,12.0,7.8,29.96,South,180,0.0,0.0,83,0.00,,,0.00,Weather View 32 v70,2013-01-04 10:35:00,
2013-01-04 05:44:00,12.0,7.8,29.96,NNE,22,0.0,0.0,83,0.00,,,0.00,Weather View 32 v70,2013-01-04 10:44:00,
2013-01-04 05:49:00,12.0,7.8,29.96,ESE,112,0.0,0.0,83,0.00,,,0.00,Weather View 32 v70,2013-01-04 10:49:00,
2013-01-04 05:55:00,12.0,7.8,29.96,ESE,112,0.0,0.0,83,0.00,,,0.00,Weather View 32 v70,2013-01-04 10:55:00,
2013-01-04 06:00:00,12.0,8.1,29.96,SSW,202,0.0,0.0,84,0.00,,,0.00,Weather View 32 v70,2013-01-04 11:00:00,
2013-01-04 06:09:00,12.0,8.1,29.97,SW,225,0.0,0.0,84,0.00,,,0.00,Weather View 32 v70,2013-01-04 11:09:00,
2013-01-04 06:15:00,12.0,8.1,29.97,SSW,202,0.0,0.0,84,0.00,,,0.00,Weather View 32 v70,2013-01-04 11:15:00,
2013-01-04 06:25:00,12.0,8.1,29.97,South,180,0.0,0.0,84,0.00,,,0.00,Weather View 32 v70,2013-01-04 11:25:00,
2013-01-04 06:30:00,12.0,8.1,29.97,SSW,202,0.0,0.0,84,0.00,,,0.00,Weather View 32 v70,2013-01-04 11:30:00,
2013-01-04 06:39:00,12.0,8.1,29.97,SSW,202,0.0,0.0,84,0.00,,,0.00,Weather View 32 v70,2013-01-04 11:39:00,
2013-01-04 06:45:00,12.0,8.1,29.97,South,180,0.0,0.0,84,0.00,,,0.00,Weather View 32 v70,2013-01-04 11:45:00,
2013-01-04 06:50:00,12.0,8.1,29.97,ESE,112,0.0,0.0,84,0.00,,,0.00,Weather View 32 v70,2013-01-04 11:50:00,
2013-01-04 06:55:00,12.0,8.1,29.97,SE,135,0.0,0.0,84,0.00,,,0.00,Weather View 32 v70,2013-01-04 11:55:00,
2013-01-04 07:04:00,12.0,8.1,29.97,East,90,0.0,0.0,84,0.00,,,0.00,Weather View 32 v70,2013-01-04 12:04:00,
2013-01-04 07:10:00,12.0,8.1,29.98,SE,135,0.0,0.0,84,0.00,,,0.00,Weather View 32 v70,2013-01-04 12:10:00,
2013-01-04 07:15:00,12.0,8.1,29.98,ENE,68,0.0,0.0,84,0.00,,,0.00,Weather View 32 v70,2013-01-04 12:15:00,
2013-01-04 07:20:00,12.0,8.1,29.97,SSW,202,0.0,0.0,84,0.00,,,0.00,Weather View 32 v70,2013-01-04 12:20:00,
2013-01-04 07:29:00,12.0,8.4,29.98,SW,225,0.0,0.0,85,0.00,,,0.00,Weather View 32 v70,2013-01-04 12:29:00,
2013-01-04 07:34:00,12.0,10.1,29.98,SW,225,2.0,3.0,92,0.00,,,0.00,Weather View 32 v70,2013-01-04 12:34:00,
2013-01-04 07:40:00,13.0,11.6,29.98,SW,225,0.0,3.0,94,0.00,,,0.00,Weather View 32 v70,2013-01-04 12:40:00,
2013-01-04 07:45:00,13.0,13.0,29.98,WSW,248,0.0,3.0,100,0.00,,,0.00,Weather View 32 v70,2013-01-04 12:45:00,
2013-01-04 07:54:00,14.0,12.4,29.98,SW,225,0.0,3.0,93,0.00,,,0.00,Weather View 32 v70,2013-01-04 12:54:00,
2013-01-04 07:59:00,14.0,13.1,29.98,SW,225,0.0,3.0,96,0.00,,,0.00,Weather View 32 v70,2013-01-04 12:59:00,
2013-01-04 08:05:00,15.0,14.1,29.98,SW,225,0.0,3.0,96,0.00,,,0.00,Weather View 32 v70,2013-01-04 13:05:00,
2013-01-04 08:10:00,15.0,14.1,29.98,WSW,248,0.0,3.0,96,0.00,,,0.00,Weather View 32 v70,2013-01-04 13:10:00,
2013-01-04 08:15:00,16.0,15.8,29.97,WSW,248,2.0,3.0,99,0.00,,,0.00,Weather View 32 v70,2013-01-04 13:15:00,
2013-01-04 08:24:00,19.0,18.5,29.98,SSW,202,2.0,4.0,98,0.00,,,0.00,Weather View 32 v70,2013-01-04 13:24:00,
2013-01-04 08:29:00,21.0,18.5,29.98,SSW,202,3.0,4.0,90,0.00,,,0.00,Weather View 32 v70,2013-01-04 13:29:00,
2013-01-04 08:34:00,22.0,19.3,29.98,SW,225,4.0,4.0,89,0.00,,,0.00,Weather View 32 v70,2013-01-04 13:34:00,
2013-01-04 08:39:00,23.0,19.2,29.98,SW,225,2.0,6.0,85,0.00,,,0.00,Weather View 32 v70,2013-01-04 13:39:00,
2013-01-04 08:44:00,24.0,20.4,29.97,WSW,248,4.0,7.0,86,0.00,,,0.00,Weather View 32 v70,2013-01-04 13:44:00,
2013-01-04 08:54:00,26.0,22.9,29.97,WSW,248,2.0,8.0,88,0.00,,,0.00,Weather View 32 v70,2013-01-04 13:54:00,
2013-01-04 08:59:00,27.0,22.2,29.97,SW,225,5.0,8.0,82,0.00,,,0.00,Weather View 32 v70,2013-01-04 13:59:00,
2013-01-04 09:04:00,28.0,20.1,29.98,WSW,248,3.0,8.0,72,0.00,,,0.00,Weather View 32 v70,2013-01-04 14:04:00,
2013-01-04 09:09:00,29.0,21.4,29.97,South,180,2.0,8.0,73,0.00,,,0.00,Weather View 32 v70,2013-01-04 14:09:00,
2013-01-04 09:14:00,29.0,20.1,29.97,SW,225,1.0,9.0,69,0.00,,,0.00,Weather View 32 v70,2013-01-04 14:14:00,
2013-01-04 09:19:00,30.0,20.4,29.97,SW,225,3.0,9.0,67,0.00,,,0.00,Weather View 32 v70,2013-01-04 14:19:00,
2013-01-04 09:24:00,30.0,20.0,29.97,SW,225,2.0,9.0,66,0.00,,,0.00,Weather View 32 v70,2013-01-04 14:24:00,
2013-01-04 09:29:00,31.0,20.2,29.97,SW,225,3.0,9.0,64,0.00,,,0.00,Weather View 32 v70,2013-01-04 14:29:00,
2013-01-04 09:35:00,31.0,20.2,29.97,WSW,248,4.0,9.0,64,0.00,,,0.00,Weather View 32 v70,2013-01-04 14:35:00,
2013-01-04 09:40:00,32.0,22.3,29.96,SSW,202,3.0,9.0,67,0.00,,,0.00,Weather View 32 v70,2013-01-04 14:40:00,
2013-01-04 09:45:00,32.0,21.9,29.97,WNW,292,3.0,10.0,66,0.00,,,0.00,Weather View 32 v70,2013-01-04 14:45:00,
2013-01-04 09:50:00,32.0,19.3,29.96,SW,225,3.0,10.0,59,0.00,,,0.00,Weather View 32 v70,2013-01-04 14:50:00,
2013-01-04 09:55:00,33.0,23.2,29.97,SW,225,0.0,10.0,67,0.00,,,0.00,Weather View 32 v70,2013-01-04 14:55:00,
2013-01-04 10:00:00,33.0,21.8,29.96,SW,225,7.0,10.0,63,0.00,,,0.00,Weather View 32 v70,2013-01-04 15:00:00,
2013-01-04 10:09:00,34.0,22.0,29.96,SW,225,6.0,10.0,61,0.00,,,0.00,Weather View 32 v70,2013-01-04 15:09:00,
2013-01-04 10:14:00,34.0,22.0,29.96,South,180,4.0,10.0,61,0.00,,,0.00,Weather View 32 v70,2013-01-04 15:14:00,
2013-01-04 10:19:00,35.0,22.9,29.95,SSW,202,4.0,10.0,61,0.00,,,0.00,Weather View 32 v70,2013-01-04 15:19:00,
2013-01-04 10:24:00,35.0,17.8,29.95,SW,225,4.0,10.0,49,0.00,,,0.00,Weather View 32 v70,2013-01-04 15:24:00,
2013-01-04 10:29:00,36.0,19.1,29.95,NW,315,5.0,14.0,50,0.00,,,0.00,Weather View 32 v70,2013-01-04 15:29:00,
2013-01-04 10:34:00,36.0,18.7,29.94,NW,315,9.0,14.0,49,0.00,,,0.00,Weather View 32 v70,2013-01-04 15:34:00,
2013-01-04 10:39:00,36.0,14.0,29.94,SSW,202,2.0,14.0,40,0.00,,,0.00,Weather View 32 v70,2013-01-04 15:39:00,
2013-01-04 10:44:00,36.0,13.4,29.94,West,270,4.0,14.0,39,0.00,,,0.00,Weather View 32 v70,2013-01-04 15:44:00,
2013-01-04 10:50:00,37.0,14.9,29.94,WSW,248,4.0,14.0,40,0.00,,,0.00,Weather View 32 v70,2013-01-04 15:50:00,
2013-01-04 10:59:00,37.0,14.9,29.93,SW,225,5.0,16.0,40,0.01,,,0.01,Weather View 32 v70,2013-01-04 15:59:00,
2013-01-04 11:04:00,37.0,18.6,29.93,SSW,202,6.0,16.0,47,0.01,,,0.01,Weather View 32 v70,2013-01-04 16:04:00,
2013-01-04 11:10:00,37.0,19.1,29.93,NNW,338,5.0,16.0,48,0.01,,,0.01,Weather View 32 v70,2013-01-04 16:10:00,
2013-01-04 11:15:00,37.0,19.6,29.92,West,270,5.0,16.0,49,0.01,,,0.01,Weather View 32 v70,2013-01-04 16:15:00,
2013-01-04 11:20:00,37.0,19.6,29.92,SW,225,2.0,16.0,49,0.01,,,0.01,Weather View 32 v70,2013-01-04 16:20:00,
2013-01-04 11:29:00,37.0,19.6,29.92,West,270,3.0,16.0,49,0.01,,,0.01,Weather View 32 v70,2013-01-04 16:29:00,
2013-01-04 11:34:00,37.0,19.6,29.91,South,180,4.0,16.0,49,0.01,,,0.01,Weather View 32 v70,2013-01-04 16:34:00,
2013-01-04 11:40:00,37.0,19.1,29.91,SW,225,4.0,16.0,48,0.02,,,0.02,Weather View 32 v70,2013-01-04 16:40:00,
2013-01-04 11:45:00,37.0,18.6,29.91,West,270,5.0,16.0,47,0.02,,,0.02,Weather View 32 v70,2013-01-04 16:45:00,
2013-01-04 11:54:00,37.0,18.1,29.90,SW,225,13.0,14.0,46,0.01,,,0.02,Weather View 32 v70,2013-01-04 16:54:00,
2013-01-04 11:59:00,37.0,18.1,29.89,SW,225,7.0,14.0,46,0.01,,,0.02,Weather View 32 v70,2013-01-04 16:59:00,
2013-01-04 12:05:00,38.0,19.0,29.89,South,180,10.0,14.0,46,0.01,,,0.02,Weather View 32 v70,2013-01-04 17:05:00,
2013-01-04 12:10:00,37.0,18.1,29.89,SSW,202,3.0,14.0,46,0.01,,,0.02,Weather View 32 v70,2013-01-04 17:10:00,
2013-01-04 12:15:00,37.0,19.1,29.88,South,180,12.0,14.0,48,0.02,,,0.03,Weather View 32 v70,2013-01-04 17:15:00,
2013-01-04 12:24:00,37.0,18.6,29.87,SW,225,12.0,16.0,47,0.02,,,0.03,Weather View 32 v70,2013-01-04 17:24:00,
2013-01-04 12:29:00,37.0,17.6,29.87,SW,225,5.0,16.0,45,0.02,,,0.03,Weather View 32 v70,2013-01-04 17:29:00,
2013-01-04 12:35:00,37.0,17.6,29.87,SSW,202,11.0,16.0,45,0.02,,,0.03,Weather View 32 v70,2013-01-04 17:35:00,
2013-01-04 12:40:00,37.0,18.1,29.86,SW,225,7.0,16.0,46,0.01,,,0.03,Weather View 32 v70,2013-01-04 17:40:00,
2013-01-04 12:45:00,37.0,18.6,29.86,WSW,248,7.0,16.0,47,0.01,,,0.03,Weather View 32 v70,2013-01-04 17:45:00,